Date String (YYYY-MM-DD hh:mm:ss) UTC,Instrument flags,Ambient pressure (hPa),Sample flow (lpm),Bypass flow (lpm),Sample temperature (°C),Ambient temperature (°C),ASC tube jacket temperature (°C),LED temperature (°C),Box temperature (°C),Sample RH (%),Span deviation,Mass concentration (μg/m³),Mass concentration (μg/m³),Mass concentration (μg/m³)
DateTimeUTC,F1_M11,P_M11,Q1_M11,Q2_M11,T1_M11,T2_M11,T3_M11,T4_M11,T5_M11,U1_M11,ZSPAN_M11,X0_M11,X2_M11,X1_M11
2021-11-16 22:00:00,,0817.2,5.00,0.00,29.9,28.9,00.0,38.8,31.7,09.4,0000.0,0003.45,0000.67,0000.29
2021-11-16 22:01:00,,0817.0,5.00,0.00,29.9,27.1,00.0,38.8,31.3,09.5,0000.0,0003.10,0000.72,0000.29
2021-11-16 22:02:00,,0817.1,5.00,0.00,29.8,26.2,00.0,38.8,31.2,09.5,0000.0,0003.33,0000.75,0000.29
2021-11-16 22:03:00,,0817.0,5.00,0.00,29.7,26.5,00.0,38.8,31.2,09.6,0000.0,0003.47,0000.73,0000.29
2021-11-16 22:04:00,,0817.1,4.99,0.00,29.6,26.9,00.0,38.7,31.2,09.6,0000.0,0003.35,0000.71,0000.29
2021-11-16 22:05:00,,0817.3,5.02,0.00,29.6,27.2,00.0,38.7,31.2,09.7,0000.0,0002.94,0000.72,0000.28
2021-11-16 22:06:00,,0817.2,4.98,0.00,29.6,27.6,00.0,38.7,31.3,09.7,0000.0,0002.26,0000.72,0000.28
2021-11-16 22:07:00,,0817.2,5.00,0.00,29.6,27.8,00.0,38.7,31.3,09.7,0000.0,0002.26,0000.74,0000.28
2021-11-16 22:08:00,,0817.3,4.99,0.00,29.6,28.1,00.0,38.7,31.3,09.7,0000.0,0002.33,0000.78,0000.28
2021-11-16 22:09:00,,0817.2,5.01,0.00,29.7,28.2,00.0,38.6,31.4,09.7,0000.0,0002.41,0000.80,0000.28
2021-11-16 22:10:00,,0817.2,4.99,0.00,29.7,28.4,00.0,38.6,31.4,09.7,0000.0,0002.62,0000.81,0000.29
2021-11-16 22:11:00,,0817.3,5.01,0.00,29.7,28.5,00.0,38.7,31.4,09.7,0000.0,0004.05,0000.82,0000.28
2021-11-16 22:12:00,,0817.3,5.01,0.00,29.7,28.6,00.0,38.7,31.5,09.8,0000.0,0004.97,0000.86,0000.29
2021-11-16 22:13:00,,0817.3,4.99,0.00,29.7,28.6,00.0,38.7,31.5,09.7,0000.0,0005.08,0000.87,0000.30
2021-11-16 22:14:00,,0817.2,5.00,0.00,29.7,28.7,00.0,38.7,31.6,09.7,0000.0,0005.08,0000.86,0000.30
2021-11-16 22:15:00,,0817.4,5.00,0.00,29.8,28.8,00.0,38.7,31.6,09.6,0000.0,0005.32,0000.89,0000.31
2021-11-16 22:16:00,,0817.5,5.00,0.00,29.8,28.9,00.0,38.7,31.6,09.5,0000.0,0006.39,0000.92,0000.31
2021-11-16 22:17:00,,0817.5,5.00,0.00,29.8,28.9,00.0,38.7,31.7,09.4,0000.0,0007.66,0000.91,0000.31
2021-11-16 22:18:00,,0817.5,4.99,0.00,29.9,29.0,00.0,38.7,31.7,09.5,0000.0,0008.13,0000.91,0000.31
2021-11-16 22:19:00,,0817.6,5.01,0.00,29.9,29.1,00.0,38.8,31.7,09.5,0000.0,0008.08,0000.89,0000.32
2021-11-16 22:20:00,,0817.5,5.00,0.00,29.9,29.1,00.0,38.8,31.7,09.4,0000.0,0008.13,0000.89,0000.31
2021-11-16 22:21:00,,0817.5,5.00,0.00,30.0,29.2,00.0,38.8,31.7,09.3,0000.0,0008.17,0000.94,0000.30
2021-11-16 22:22:00,,0817.5,4.99,0.00,30.0,28.9,00.0,38.8,31.7,09.3,0000.0,0007.37,0000.93,0000.30
2021-11-16 22:23:00,,0817.6,5.01,0.00,29.9,26.9,00.0,38.8,31.3,09.3,0000.0,0007.05,0000.89,0000.30
2021-11-16 22:24:00,,0817.6,5.01,0.00,29.8,26.3,00.0,38.8,31.2,09.4,0000.0,0007.26,0000.89,0000.30
2021-11-16 22:25:00,,0817.7,5.00,0.00,29.7,26.6,00.0,38.8,31.1,09.4,0000.0,0007.04,0000.91,0000.29
2021-11-16 22:26:00,,0817.8,4.98,0.00,29.6,27.0,00.0,38.7,31.2,09.5,0000.0,0007.03,0000.95,0000.29
2021-11-16 22:27:00,,0817.8,5.01,0.00,29.6,27.4,00.0,38.7,31.3,09.5,0000.0,0005.89,0000.94,0000.28
2021-11-16 22:28:00,,0817.6,5.00,0.00,29.6,27.7,00.0,38.7,31.3,09.5,0000.0,0004.44,0000.94,0000.28
2021-11-16 22:29:00,,0817.7,4.99,0.00,29.6,27.9,00.0,38.7,31.3,09.5,0000.0,0003.45,0000.95,0000.27
2021-11-16 22:30:00,,0817.7,5.00,0.00,29.6,28.1,00.0,38.7,31.4,09.5,0000.0,0003.51,0000.96,0000.27
2021-11-16 22:31:00,,0817.7,5.00,0.00,29.7,28.3,00.0,38.6,31.4,09.5,0000.0,0003.39,0000.94,0000.27
2021-11-16 22:32:00,,0817.7,5.00,0.00,29.7,28.4,00.0,38.7,31.5,09.5,0000.0,0003.05,0000.89,0000.27
2021-11-16 22:33:00,,0817.6,5.00,0.00,29.7,28.6,00.0,38.7,31.5,09.5,0000.0,0002.88,0000.84,0000.27
2021-11-16 22:34:00,,0817.7,5.00,0.00,29.7,28.7,00.0,38.7,31.6,09.5,0000.0,0002.55,0000.80,0000.26
2021-11-16 22:35:00,,0817.7,5.00,0.00,29.8,28.8,00.0,38.7,31.6,09.5,0000.0,0002.02,0000.78,0000.25
2021-11-16 22:36:00,,0817.6,5.00,0.00,29.8,28.8,00.0,38.7,31.7,09.4,0000.0,0002.12,0000.78,0000.25
2021-11-16 22:37:00,,0817.7,4.99,0.00,29.8,28.9,00.0,38.7,31.7,09.4,0000.0,0002.39,0000.74,0000.25
2021-11-16 22:38:00,,0817.7,5.02,0.00,29.9,29.0,00.0,38.7,31.7,09.4,0000.0,0002.74,0000.75,0000.25
2021-11-16 22:39:00,,0817.5,5.01,0.00,29.9,29.0,00.0,38.8,31.8,09.3,0000.0,0002.99,0000.80,0000.26
2021-11-16 22:40:00,,0817.5,5.01,0.00,29.9,29.0,00.0,38.8,31.7,09.3,0000.0,0004.17,0000.79,0000.27
2021-11-16 22:41:00,,0817.5,5.00,0.00,30.0,29.1,00.0,38.8,31.7,09.3,0000.0,0004.26,0000.79,0000.28
2021-11-16 22:42:00,,0817.5,5.00,0.00,30.0,28.5,00.0,38.8,31.7,09.3,0000.0,0004.32,0000.78,0000.28
2021-11-16 22:43:00,,0817.2,5.00,0.00,29.9,26.6,00.0,38.8,31.3,09.4,0000.0,0004.70,0000.79,0000.29
2021-11-16 22:44:00,,0817.3,5.01,0.00,29.8,26.3,00.0,38.8,31.3,09.4,0000.0,0005.67,0000.80,0000.29
2021-11-16 22:45:00,,0817.2,5.01,0.00,29.7,26.7,00.0,38.8,31.2,09.4,0000.0,0005.62,0000.81,0000.29
2021-11-16 22:46:00,,0817.2,5.00,0.00,29.6,27.1,00.0,38.7,31.2,09.5,0000.0,0005.71,0000.85,0000.30
2021-11-16 22:47:00,,0817.1,4.99,0.00,29.6,27.4,00.0,38.7,31.2,09.5,0000.0,0005.63,0000.83,0000.30
2021-11-16 22:48:00,,0817.2,5.01,0.00,29.6,27.7,00.0,38.7,31.3,09.5,0000.0,0005.54,0000.86,0000.30
2021-11-16 22:49:00,,0817.2,5.00,0.00,29.6,27.9,00.0,38.6,31.3,09.5,0000.0,0005.21,0000.82,0000.30
2021-11-16 22:50:00,,0817.4,5.00,0.00,29.6,28.1,00.0,38.6,31.3,09.6,0000.0,0004.89,0000.75,0000.29
2021-11-16 22:51:00,,0817.3,5.01,0.00,29.6,28.2,00.0,38.6,31.4,09.6,0000.0,0003.85,0000.73,0000.29
2021-11-16 22:52:00,,0817.3,5.00,0.00,29.7,28.4,00.0,38.6,31.4,09.6,0000.0,0003.52,0000.70,0000.28
2021-11-16 22:53:00,,0817.2,5.00,0.00,29.6,28.5,00.0,38.6,31.4,09.6,0000.0,0003.46,0000.71,0000.28
2021-11-16 22:54:00,,0817.1,5.00,0.00,29.6,28.5,00.0,38.6,31.4,09.5,0000.0,0003.06,0000.72,0000.27
2021-11-16 22:55:00,,0817.1,5.01,0.00,29.6,28.6,00.0,38.6,31.4,09.6,0000.0,0002.19,0000.73,0000.26
2021-11-16 22:56:00,,0817.1,4.98,0.00,29.6,28.6,00.0,38.6,31.3,09.6,0000.0,0002.41,0000.77,0000.27
2021-11-16 22:57:00,,0817.2,5.01,0.00,29.6,28.6,00.0,38.6,31.3,09.6,0000.0,0002.24,0000.74,0000.26
2021-11-16 22:58:00,,0817.3,5.01,0.00,29.6,28.6,00.0,38.6,31.3,09.6,0000.0,0002.11,0000.72,0000.27
2021-11-16 22:59:00,,0817.4,4.99,0.00,29.6,28.7,00.0,38.6,31.3,09.5,0000.0,0001.90,0000.71,0000.28
